Regional Weather Roundup
Issued by NWS

Home | Current Version | Previous Version | Graphics & Text | Print | Product List | Glossary On
Versions: 1 2 3 4 5 6 7 8 9 10 11 12 13 14 15 16 17 18 19 20 21 22 23 24 25 26 27 28 29 30 31 32 33 34 35 36 37 38 39 40 41 42 43 44 45 46 47 48 49 50
537
ASUS44 KLIX 241401
RWRLA
LOUISIANA WEATHER ROUNDUP
NATIONAL WEATHER SERVICE NEW ORLEANS LA
900 AM CDT FRI OCT 24 2014

NOTE: "FAIR" INDICATES FEW OR NO CLOUDS BELOW 12,000 FEET WITH NO
      SIGNIFICANT WEATHER AND/OR OBSTRUCTIONS TO VISIBILITY.
      SKY/WX - SKY CONDITION AND SIGNIFICANT WEATHER.
      TMP - AIR TEMPERATURE.    DP   - DEWPOINT TEMPERATURE.
      RH  - RELATIVE HUMIDITY.  PRES - PRESSURE.
      HX  - HEAT INDEX.         WCI  - WIND CHILL INDEX.

*  THESE STATIONS ARE NOT NWS OR FAA STATIONS AND ARE NOT UNDER
   NWS QUALITY CONTROL.

LAZ040-048-061>063-065-066-069-241500-
SOUTHEAST LOUISIANA

CITY           SKY/WX    TMP DP  RH WIND       PRES   REMARKS
N.O. AUDUBON     N/A     67  55  64 MISG        N/A
N.O. INTL ARPT MOSUNNY   66  54  65 VRB3      30.12R
N.O. LAKEFRONT SUNNY     65  52  62 NE10      30.12R
N.O. DOWNTOWN* FAIR      63  46  55 N8        30.12R
SLIDELL        SUNNY     56  50  80 N5        30.12R
BATON ROUGE    SUNNY     56  49  77 N5        30.14R
BOOTHVILLE     SUNNY     70  56  61 NE6       30.10R
BELLE CHASSE   MOSUNNY   63  53  70 NE3       30.11R
BOGALUSA*        N/A     56  50  80 N3        30.14R
NEW ROADS*     FAIR      54  50  87 CALM      30.15R
GONZALES*      FAIR      57  52  83 CALM      30.13R
HAMMOND*       NOT AVBL
HOUMA*         NOT AVBL
PORT FOURCHON* SUNNY     66  59  77 NE9       30.13R

$$

LAZ041-044-053-054-241500-
SOUTHWEST LOUISIANA

CITY           SKY/WX    TMP DP  RH WIND       PRES   REMARKS
LAKE CHARLES   SUNNY     57  51  80 NE8       30.15R
LAFAYETTE      SUNNY     55  51  86 N7        30.15R
PATTERSON      SUNNY     59  54  82 NE6       30.15R
SALT POINT       N/A     60  54  80 VRB6      30.12R
NEW IBERIA     SUNNY     58  52  80 N7        30.15R
CHENAULT AIRPK NOT AVBL

$$

LAZ027-028-241500-
CENTRAL LOUISIANA

CITY           SKY/WX    TMP DP  RH WIND       PRES   REMARKS
FORT POLK      SUNNY     55  50  82 N5        30.16R
ALEXANDRIA INT SUNNY     53  50  89 CALM      30.16R
ALEXANDRIA     SUNNY     54  50  86 CALM      30.17R

$$

LAZ001-002-241500-
NORTHWEST LOUISIANA

CITY           SKY/WX    TMP DP  RH WIND       PRES   REMARKS
SHREVEPORT     SUNNY     57  53  86 CALM      30.18R
BARKSDALE AFB  SUNNY     55  52  88 CALM      30.19R
DTN SHREVEPORT SUNNY     55  50  83 CALM      30.19R

$$

LAZ014-016-241500-
NORTHEAST LOUISIANA

CITY           SKY/WX    TMP DP  RH WIND       PRES   REMARKS
MONROE         SUNNY     52  49  89 N3        30.18R
TALLULAH       SUNNY     54  50  86 VRB3      30.17R

$$




USA.gov is the U.S. government's official web portal to all federal, state and local government web resources and services.